Regional Weather Roundup
Issued by NWS

Home | Current Version | Previous Version | Graphics & Text | Print | Product List | Glossary On
Versions: 1 2 3 4 5 6 7 8 9 10 11 12 13 14 15 16 17 18 19 20 21 22 23 24 25 26 27 28 29 30 31 32 33 34 35 36 37 38 39 40 41 42 43 44 45 46 47 48 49 50
000
ASUS45 KSLC 021510
RWRUT
UTAH REGIONAL WEATHER ROUNDUP
NATIONAL WEATHER SERVICE SALT LAKE CITY UT
900 AM MDT SUN AUG 02 2015

UTZ001>011-023>025-021600-

NORTHERN UTAH

CITY           SKY/WX    TMP DP  RH WIND       PRES   REMARKS
BRIGHAM CITY   SUNNY     69  38  31 NW5       30.02R
HILL AFB       SUNNY     69  38  31 E20G30    30.04S
LOGAN          SUNNY     65  41  41 CALM      30.07R
OGDEN          MOSUNNY   72  39  30 CALM      30.02R
PROVO AIRPORT  MOSUNNY   66  45  45 CALM      30.06R
SALT LAKE CITY PTSUNNY   79  41  25 S9        30.00S
VERNAL         SUNNY     75  45  34 E3        30.13S
WENDOVER       CLOUDY    82  39  21 NW10G18   30.03R
HEBER CITY     MOSUNNY   61  43  51 CALM      30.15S
WEST JORDAN    SUNNY     77  43  29 SE6       30.05R

$$

UTZ012>022-026-027-021600-

SOUTHERN/CENTRAL UTAH

CITY           SKY/WX    TMP DP  RH WIND       PRES   REMARKS
BLANDING       CLOUDY    61  59  94 CALM      30.30R
BRYCE CANYON   PTSUNNY   66  51  58 SE9       30.28S
CEDAR CITY     CLOUDY    71  51  49 SW13G23   30.14R
DELTA          CLOUDY    72  32  23 CALM      30.05R
HANKSVILLE     CLOUDY    77  52  41 NE6       30.09R
MILFORD        CLOUDY    72  49  44 S15       30.07R
MOAB/CYNLANDS  SUNNY     76  53  44 E12       30.09R
PRICE          SUNNY     75  49  39 E5        30.17S
ST GEORGE      PTSUNNY   73  61  64 SE8       30.01R
KANAB          CLOUDY    70  55  60 CALM      30.21R

$$

REGIONAL REPORTS     COLORADO/ARIZONA

CITY           SKY/WX    TMP DP  RH WIND       PRES   REMARKS
CRAIG, CO      SUNNY     71  45  39 NE6       30.21F
GRAND JUNCTION CLOUDY    73  52  47 E12       30.13R
RIFLE          PTSUNNY   69  50  50 N3        30.18S
MONTROSE       CLOUDY    66  56  70 S7        30.23R
CORTEZ         LGT RAIN  62  60  93 NE5       30.23R
PAGE, AZ       CLOUDY    74  61  63 N6        30.10R
GRAND CANYON   PTSUNNY   67  55  65 MISG      30.24R
KINGMAN        SUNNY     79  55  43 CALM      30.03R
FLAGSTAFF      SUNNY     65  55  70 SW9       30.27S

$$

REGIONAL REPORTS    NEVADA/IDAHO/WYOMING

CITY           SKY/WX    TMP DP  RH WIND       PRES   REMARKS
LAS VEGAS, NV  MOSUNNY   82  55  39 CALM      29.90R
ELY            PTSUNNY   71  42  35 NW8       30.19R
ELKO           CLOUDY    68  44  42 CALM      30.14R
POCATELLO, ID  SUNNY     64  44  48 NW5       30.07R
BURLEY         SUNNY     67  47  48 CALM      30.02R
EVANSTON, WY   SUNNY     67  30  25 N5        30.25R
ROCK SPRINGS   SUNNY     64  33  31 CALM      30.23R
KEMMERER       SUNNY     64  32  29 N3        30.26S

$$



USA.gov is the U.S. government's official web portal to all federal, state and local government web resources and services.